This is the latest recevied weather packets stored in our database for station/object KC7UNY-13. If no packets are shown the sender has not sent any weather packets the latest 10 day(s).
| Time | Temp. | Humidity | Pressure | Rain* | Wind** | Luminosity | Snow |
|---|---|---|---|---|---|---|---|
| 1777778360 | 26.67° C | 26% | 1009.6 hPa | 0 mm | - | 0 W/m² | - |
| 1777778058 | 27.22° C | 25% | 1009.5 hPa | 0 mm | - | 0 W/m² | - |
| 1777777754 | 27.22° C | 24% | 1009.7 hPa | 0 mm | - | 0 W/m² | - |
| 1777777451 | 27.22° C | 25% | 1009.6 hPa | 0 mm | - | 0 W/m² | - |
| 1777777147 | 27.78° C | 25% | 1009.6 hPa | 0 mm | - | 0 W/m² | - |
| 1777776845 | 27.78° C | 24% | 1009.5 hPa | 0 mm | - | 0 W/m² | - |
| 1777776542 | 27.78° C | 25% | 1009.6 hPa | 0 mm | - | 0 W/m² | - |
| 1777776238 | 27.78° C | 24% | 1009.5 hPa | 0 mm | - | 0 W/m² | - |
| 1777775935 | 28.33° C | 25% | 1009.5 hPa | 0 mm | - | 0 W/m² | - |
| 1777775632 | 28.33° C | 23% | 1009.5 hPa | 0 mm | - | 0 W/m² | - |
| 1777775329 | 28.33° C | 24% | 1009.3 hPa | 0 mm | - | 0 W/m² | - |
| 1777775024 | 28.89° C | 22% | 1009.3 hPa | 0 mm | - | 0 W/m² | - |
| 1777774720 | 29.44° C | 22% | 1009.4 hPa | 0 mm | - | 1 W/m² | - |
| 1777774416 | 29.44° C | 22% | 1009.3 hPa | 0 mm | - | 2 W/m² | - |
| 1777774114 | 30° C | 20% | 1009.2 hPa | 0 mm | - | 3 W/m² | - |
| 1777773812 | 30.56° C | 22% | 1009.4 hPa | 0 mm | - | 5 W/m² | - |
| 1777773508 | 30.56° C | 20% | 1009.5 hPa | 0 mm | - | 8 W/m² | - |
| 1777773205 | 31.11° C | 19% | 1009.5 hPa | 0 mm | - | 13 W/m² | - |
| 1777772901 | 31.11° C | 19% | 1009.5 hPa | 0 mm | - | 20 W/m² | - |
| 1777772599 | 31.67° C | 19% | 1009.4 hPa | 0 mm | - | 23 W/m² | - |
| 1777772296 | 31.67° C | 19% | 1009.4 hPa | 0 mm | - | 28 W/m² | - |
| 1777771993 | 32.22° C | 19% | 1009.6 hPa | 0 mm | - | 32 W/m² | - |
| 1777771690 | 32.22° C | 18% | 1009.6 hPa | 0 mm | - | 32 W/m² | - |
| 1777771388 | 32.22° C | 18% | 1009.6 hPa | 0 mm | - | 40 W/m² | - |
| 1777771084 | 32.22° C | 18% | 1009.6 hPa | 0 mm | - | 50 W/m² | - |
* Rain latest hour (hover to see other rain measurements)
** Current wind speed in m/s (hover to see current wind gust speed)